TimeCST,TemperatureF,Dew PointF,Humidity,Sea Level PressureIn,VisibilityMPH,Wind Direction,Wind SpeedMPH,Gust SpeedMPH,PrecipitationIn,Events,Conditions,WindDirDegrees,DateUTC
12:53 AM,30.9,28.9,92,30.39,10.0,Calm,Calm,-,N/A,,Clear,0,2012-11-16 06:53:00
1:53 AM,32.0,28.9,88,30.40,10.0,Calm,Calm,-,N/A,,Partly Cloudy,0,2012-11-16 07:53:00
2:53 AM,32.0,28.9,88,30.40,10.0,Calm,Calm,-,N/A,,Clear,0,2012-11-16 08:53:00
3:53 AM,32.0,28.0,85,30.40,10.0,Calm,Calm,-,N/A,,Clear,0,2012-11-16 09:53:00
4:53 AM,28.9,27.0,92,30.41,9.0,Calm,Calm,-,N/A,,Clear,0,2012-11-16 10:53:00
5:53 AM,28.9,27.0,92,30.41,8.0,Calm,Calm,-,N/A,,Clear,0,2012-11-16 11:53:00
6:53 AM,28.0,27.0,96,30.43,4.0,Calm,Calm,-,N/A,,Clear,0,2012-11-16 12:53:00
7:53 AM,33.1,30.0,89,30.45,6.0,Calm,Calm,-,N/A,,Clear,0,2012-11-16 13:53:00
8:53 AM,41.0,35.1,79,30.46,9.0,NE,3.5,-,N/A,,Clear,50,2012-11-16 14:53:00
9:53 AM,46.0,34.0,63,30.47,10.0,NNE,5.8,-,N/A,,Clear,30,2012-11-16 15:53:00
10:53 AM,50.0,33.1,52,30.46,10.0,NE,3.5,-,N/A,,Clear,50,2012-11-16 16:53:00
12:53 PM,55.0,28.0,35,30.43,10.0,North,6.9,-,N/A,,Clear,360,2012-11-16 18:53:00
1:53 PM,55.9,26.1,32,30.41,10.0,North,4.6,-,N/A,,Clear,10,2012-11-16 19:53:00
2:53 PM,57.0,26.1,30,30.40,10.0,NE,4.6,-,N/A,,Clear,50,2012-11-16 20:53:00
3:53 PM,57.0,27.0,32,30.41,10.0,Variable,3.5,-,N/A,,Clear,0,2012-11-16 21:53:00
4:53 PM,48.9,30.0,48,30.41,10.0,NNE,4.6,-,N/A,,Clear,30,2012-11-16 22:53:00
5:53 PM,46.0,28.9,51,30.42,10.0,NNE,5.8,-,N/A,,Clear,30,2012-11-16 23:53:00
6:53 PM,45.0,28.9,53,30.43,10.0,Calm,Calm,-,N/A,,Clear,0,2012-11-17 00:53:00
7:53 PM,42.1,28.9,60,30.44,10.0,ENE,4.6,-,N/A,,Clear,70,2012-11-17 01:53:00
8:53 PM,39.0,28.9,67,30.45,10.0,Calm,Calm,-,N/A,,Clear,0,2012-11-17 02:53:00
9:53 PM,39.0,30.0,70,30.46,10.0,Calm,Calm,-,N/A,,Clear,0,2012-11-17 03:53:00
10:53 PM,39.9,28.9,65,30.45,10.0,ENE,4.6,-,N/A,,Clear,70,2012-11-17 04:53:00
11:53 PM,33.1,28.0,82,30.45,10.0,Calm,Calm,-,N/A,,Clear,0,2012-11-17 05:53:00